Location: Artiguedieu
(43.5000°N, 0.5454°E)
Time: 18:37:19
(UTC+00:00)

Transit 2A Rocket - Pass Details

Date: 29 July 2021
Orbit: 586 x 916 km, 66.7° (Epoch: 21 September)

Event Time Altitude Azimuth Distance (km) Brightness Sun altitude
Rises 21:12:02 0° 339° (NNW) 3,194 9.5 -16.5°
Reaches altitude 10° 21:15:43 10° 6° (N) 2,347 8.1 -16.9°
Maximum altitude 21:18:19 13° 35° (NE) 2,161 7.5 -17.2°
Drops below altitude 10° 21:21:01 10° 64° (ENE) 2,447 7.5 -17.6°
Enters shadow 21:23:05 - 79° (E) 2,908 7.7 -17.8°
Sets 21:25:00 0° 90° (E) 3,446 - -18.0°
